Location: *
(43.9905°S, 176.4941°W)
Time: 08:49:23
(UTC+00:00)

MetOp-A - Pass Details

Date: 08 December 2019
Orbit: 819 x 821 km, 98.5° (Epoch: 21 January)

Event Time Altitude Azimuth Distance (km) Brightness Sun altitude
Rises 09:22:11 0° 169° (S) 3,393 8.1 -16.4°
Reaches altitude 10° 09:24:34 10° 172° (S) 2,454 7.3 -16.7°
Maximum altitude 09:29:57 67° 253° (WSW) 903 4.5 -17.2°
Drops below altitude 10° 09:35:17 10° 334° (NNW) 2,424 6.3 -17.6°
Enters shadow 09:35:17 10° 334° (NNW) 2,428 6.3 -17.6°
